| time (UTC) | temp F | wind direction | speed knots | gust knots | rain 1hr in | rain 24hr in | rain mn in | humidity % | barometer mb |
| 20260503200124 | 64 | 333 | 3.5 | 8.7 | 0.00 | 0.00 | 0.00 | 31 | 1023.0 |
| 20260503195621 | 64 | 6 | 0.0 | 7.8 | 0.00 | 0.00 | 0.00 | 31 | 1023.0 |
| 20260503195118 | 63 | 321 | 2.6 | 8.7 | 0.00 | 0.00 | 0.00 | 32 | 1023.3 |
| 20260503194610 | 64 | 309 | 0.9 | 7.8 | 0.00 | 0.00 | 0.00 | 32 | 1022.9 |
| 20260503194110 | 64 | 158 | 2.6 | 2.6 | 0.00 | 0.00 | 0.00 | 30 | 1023.1 |
| 20260503193607 | 64 | 336 | 5.2 | 7.8 | 0.00 | 0.00 | 0.00 | 29 | 1023.1 |
| 20260503193102 | 65 | 296 | 2.6 | 8.7 | 0.00 | 0.00 | 0.00 | 28 | 1023.3 |
| 20260503192558 | 64 | 336 | 5.2 | 13.0 | 0.00 | 0.00 | 0.00 | 32 | 1023.4 |
| 20260503192054 | 64 | 313 | 2.6 | 7.8 | 0.00 | 0.00 | 0.00 | 31 | 1023.3 |
| 20260503191551 | 63 | 301 | 1.7 | 4.3 | 0.00 | 0.00 | 0.00 | 31 | 1023.6 |
| 20260503191048 | 63 | 62 | 1.7 | 8.7 | 0.00 | 0.00 | 0.00 | 30 | 1023.6 |
| 20260503190545 | 62 | 21 | 0.0 | 7.8 | 0.00 | 0.00 | 0.00 | 29 | 1023.6 |
| 20260503190042 | 62 | 350 | 2.6 | 12.2 | 0.00 | 0.00 | 0.00 | 31 | 1023.7 |
| 20260503185539 | 63 | 312 | 5.2 | 8.7 | 0.00 | 0.00 | 0.00 | 30 | 1023.7 |
| 20260503185038 | 64 | 245 | 1.7 | 4.3 | 0.00 | 0.00 | 0.00 | 30 | 1024.0 |
| 20260503184535 | 62 | 32 | 1.7 | 7.8 | 0.00 | 0.00 | 0.00 | 31 | 1024.0 |
| 20260503184031 | 61 | 66 | 5.2 | 7.8 | 0.00 | 0.00 | 0.00 | 29 | 1024.2 |
| 20260503183528 | 61 | 333 | 2.6 | 6.1 | 0.00 | 0.00 | 0.00 | 32 | 1024.0 |
| 20260503183025 | 62 | 6 | 3.5 | 6.1 | 0.00 | 0.00 | 0.00 | 30 | 1024.0 |
| 20260503182523 | 62 | 235 | 2.6 | 6.1 | 0.00 | 0.00 | 0.00 | 29 | 1024.2 |
| 20260503182021 | 62 | 346 | 1.7 | 8.7 | 0.00 | 0.00 | 0.00 | 32 | 1024.3 |
| 20260503181518 | 60 | 359 | 1.7 | 4.3 | 0.00 | 0.00 | 0.00 | 34 | 1024.3 |
| 20260503181014 | 62 | 21 | 0.9 | 7.8 | 0.00 | 0.00 | 0.00 | 33 | 1024.4 |
| 20260503180512 | 62 | 281 | 1.7 | 4.3 | 0.00 | 0.00 | 0.00 | 32 | 1024.4 |
| 20260503180008 | 62 | 10 | 0.9 | 6.1 | 0.00 | 0.00 | 0.00 | 31 | 1024.5 |
| 20260503175506 | 61 | 336 | 3.5 | 6.1 | 0.00 | 0.00 | 0.00 | 32 | 1024.5 |
| 20260503175002 | 62 | 353 | 7.8 | 12.2 | 0.00 | 0.00 | 0.00 | 30 | 1024.6 |
| 20260503174501 | 60 | 312 | 4.3 | 6.1 | 0.00 | 0.00 | 0.00 | 33 | 1024.6 |
| 20260503173956 | 60 | 347 | 1.7 | 6.1 | 0.00 | 0.00 | 0.00 | 34 | 1024.8 |
| 20260503173451 | 61 | 9 | 1.7 | 6.1 | 0.00 | 0.00 | 0.00 | 33 | 1024.9 |
| 20260503172948 | 62 | 288 | 2.6 | 4.3 | 0.00 | 0.00 | 0.00 | 36 | 1025.2 |
| 20260503172446 | 61 | 15 | 1.7 | 4.3 | 0.00 | 0.00 | 0.00 | 31 | 1025.3 |
| 20260503171942 | 60 | 5 | 0.9 | 2.6 | 0.00 | 0.00 | 0.00 | 32 | 1025.4 |
| 20260503171439 | 60 | 317 | 3.5 | 6.1 | 0.00 | 0.00 | 0.00 | 31 | 1025.5 |
| 20260503170937 | 61 | 353 | 1.7 | 4.3 | 0.00 | 0.00 | 0.00 | 33 | 1025.3 |
| 20260503170432 | 62 | 320 | 1.7 | 4.3 | 0.00 | 0.00 | 0.00 | 29 | 1025.6 |
| 20260503150825 | 56 | 338 | 2.6 | 2.6 | 0.00 | 0.00 | 0.00 | 35 | 1026.3 |
| 20260503150321 | 56 | 273 | 2.6 | 6.1 | 0.00 | 0.00 | 0.00 | 34 | 1026.4 |
| 20260503140245 | 52 | 16 | 4.3 | 7.8 | 0.00 | 0.00 | 0.00 | 41 | 1026.5 |
| 20260503131215 | 47 | 358 | 0.0 | 1.7 | 0.00 | 0.00 | 0.00 | 63 | 1026.5 |
| 20260503130713 | 46 | 355 | 0.0 | 1.7 | 0.00 | 0.00 | 0.00 | 65 | 1026.5 |
| 20260503130210 | 45 | 355 | 1.7 | 2.6 | 0.00 | 0.00 | 0.00 | 65 | 1026.4 |
| 20260503120135 | 34 | 35 | 0.0 | 0.0 | 0.00 | 0.00 | 0.00 | 98 | 1026.2 |
| 20260503110602 | 31 | 35 | 0.0 | 0.0 | 0.00 | 0.00 | 0.00 | 97 | 1025.6 |
| 20260503090450 | 33 | 35 | 0.0 | 0.0 | 0.00 | 0.00 | 0.00 | 96 | 1024.9 |
| 20260503081416 | 33 | 35 | 0.0 | 0.0 | 0.00 | 0.00 | 0.00 | 94 | 1024.7 |
| 20260503080913 | 33 | 35 | 0.0 | 0.0 | 0.00 | 0.00 | 0.00 | 94 | 1024.7 |
| 20260503080410 | 34 | 35 | 0.0 | 0.0 | 0.00 | 0.00 | 0.00 | 94 | 1024.5 |
| 20260503072846 | 35 | 37 | 0.0 | 0.0 | 0.00 | 0.00 | 0.00 | 92 | 1024.5 |
| 20260503072343 | 35 | 32 | 0.0 | 0.0 | 0.00 | 0.00 | 0.00 | 92 | 1024.4 |
| 20260503071839 | 35 | 32 | 0.0 | 0.0 | 0.00 | 0.00 | 0.00 | 92 | 1024.4 |
| 20260503071337 | 35 | 32 | 0.0 | 0.0 | 0.00 | 0.00 | 0.00 | 91 | 1024.5 |
| 20260503070833 | 35 | 32 | 0.0 | 0.0 | 0.00 | 0.00 | 0.00 | 91 | 1024.3 |
| 20260503070331 | 35 | 33 | 0.0 | 0.0 | 0.00 | 0.00 | 0.00 | 90 | 1024.5 |
| 20260503060302 | 38 | 33 | 0.0 | 0.0 | 0.00 | 0.00 | 0.00 | 82 | 1024.4 |
| 20260503054750 | 38 | 32 | 0.0 | 0.0 | 0.00 | 0.00 | 0.00 | 79 | 1024.5 |
| 20260503054246 | 39 | 32 | 0.0 | 0.0 | 0.00 | 0.00 | 0.00 | 79 | 1024.5 |
| 20260503053744 | 39 | 32 | 0.0 | 0.0 | 0.00 | 0.00 | 0.00 | 77 | 1024.8 |
| 20260503053243 | 39 | 32 | 0.0 | 0.0 | 0.00 | 0.00 | 0.00 | 77 | 1024.5 |
| 20260503052738 | 39 | 32 | 0.0 | 0.0 | 0.00 | 0.00 | 0.00 | 76 | 1024.7 |
| 20260503052235 | 40 | 32 | 0.0 | 0.0 | 0.00 | 0.00 | 0.00 | 75 | 1024.7 |
| 20260503051730 | 40 | 32 | 0.0 | 0.0 | 0.00 | 0.00 | 0.00 | 75 | 1024.4 |
| 20260503051228 | 40 | 31 | 0.0 | 0.0 | 0.00 | 0.00 | 0.00 | 74 | 1024.4 |
| 20260503050724 | 41 | 32 | 0.0 | 0.0 | 0.00 | 0.00 | 0.00 | 73 | 1024.5 |
| 20260503050221 | 41 | 33 | 0.0 | 0.0 | 0.00 | 0.00 | 0.00 | 72 | 1024.7 |
| 20260503045719 | 41 | 31 | 0.0 | 0.0 | 0.00 | 0.00 | 0.00 | 71 | 1024.5 |
| 20260503045216 | 41 | 30 | 0.0 | 0.0 | 0.00 | 0.00 | 0.00 | 70 | 1024.5 |
| 20260503044712 | 42 | 30 | 0.0 | 0.0 | 0.00 | 0.00 | 0.00 | 69 | 1024.5 |
| 20260503044210 | 42 | 29 | 0.0 | 0.0 | 0.00 | 0.00 | 0.00 | 69 | 1024.6 |
| 20260503043706 | 42 | 33 | 0.0 | 0.0 | 0.00 | 0.00 | 0.00 | 69 | 1024.5 |
| 20260503043204 | 42 | 45 | 0.0 | 1.7 | 0.00 | 0.00 | 0.00 | 69 | 1024.4 |
| 20260503042659 | 43 | 41 | 0.0 | 0.0 | 0.00 | 0.00 | 0.00 | 72 | 1024.4 |
| 20260503042156 | 43 | 22 | 0.0 | 0.0 | 0.00 | 0.00 | 0.00 | 70 | 1024.4 |
| 20260503041652 | 42 | 33 | 0.0 | 0.0 | 0.00 | 0.00 | 0.00 | 70 | 1024.3 |
| 20260503041150 | 43 | 35 | 0.0 | 0.0 | 0.00 | 0.00 | 0.00 | 71 | 1024.2 |
| 20260503040648 | 43 | 39 | 0.0 | 0.0 | 0.00 | 0.00 | 0.00 | 71 | 1024.2 |
| 20260503040145 | 43 | 135 | 0.9 | 2.6 | 0.00 | 0.00 | 0.00 | 73 | 1024.2 |
| 20260503035641 | 43 | 19 | 0.0 | 0.0 | 0.00 | 0.00 | 0.00 | 71 | 1024.2 |
| 20260503035139 | 42 | 9 | 0.0 | 0.0 | 0.00 | 0.00 | 0.00 | 75 | 1024.3 |
| 20260503034636 | 41 | 37 | 0.0 | 0.0 | 0.00 | 0.00 | 0.00 | 82 | 1024.3 |
| 20260503034133 | 41 | 35 | 0.0 | 0.0 | 0.00 | 0.00 | 0.00 | 83 | 1024.3 |
| 20260503033630 | 41 | 35 | 0.0 | 0.0 | 0.00 | 0.00 | 0.00 | 84 | 1024.4 |
| 20260503033128 | 41 | 32 | 0.0 | 0.0 | 0.00 | 0.00 | 0.00 | 83 | 1024.1 |
| 20260503032626 | 41 | 32 | 0.0 | 0.0 | 0.00 | 0.00 | 0.00 | 83 | 1024.0 |
| 20260503032125 | 41 | 31 | 0.0 | 0.0 | 0.00 | 0.00 | 0.00 | 85 | 1023.9 |
| 20260503031622 | 41 | 31 | 0.0 | 0.0 | 0.00 | 0.00 | 0.00 | 85 | 1024.2 |
| 20260503031119 | 41 | 32 | 0.0 | 0.0 | 0.00 | 0.00 | 0.00 | 85 | 1024.2 |
| 20260503030615 | 41 | 27 | 0.0 | 0.0 | 0.00 | 0.00 | 0.00 | 84 | 1024.2 |
| 20260503030112 | 41 | 20 | 0.0 | 0.0 | 0.00 | 0.00 | 0.00 | 84 | 1024.1 |
| 20260503025609 | 41 | 20 | 0.0 | 0.0 | 0.00 | 0.00 | 0.00 | 84 | 1024.2 |
| 20260503025107 | 42 | 21 | 0.0 | 0.0 | 0.00 | 0.00 | 0.00 | 83 | 1023.9 |
| 20260503024603 | 42 | 21 | 0.0 | 0.0 | 0.00 | 0.00 | 0.00 | 82 | 1024.0 |
| 20260503024100 | 42 | 9 | 0.0 | 0.0 | 0.00 | 0.00 | 0.00 | 82 | 1023.6 |
| 20260503023556 | 42 | 9 | 0.0 | 0.0 | 0.00 | 0.00 | 0.00 | 82 | 1023.9 |
| 20260503023054 | 43 | 8 | 0.0 | 0.0 | 0.00 | 0.00 | 0.00 | 81 | 1023.8 |
| 20260503022550 | 43 | 34 | 0.0 | 0.0 | 0.00 | 0.00 | 0.00 | 79 | 1023.6 |
| 20260503022044 | 43 | 35 | 0.0 | 0.0 | 0.00 | 0.00 | 0.00 | 79 | 1023.6 |
| 20260503021542 | 44 | 36 | 0.0 | 0.0 | 0.00 | 0.00 | 0.00 | 79 | 1023.5 |
| 20260503021038 | 44 | 33 | 0.0 | 0.0 | 0.00 | 0.00 | 0.00 | 77 | 1023.4 |
| 20260503020536 | 44 | 33 | 0.0 | 0.0 | 0.00 | 0.00 | 0.00 | 76 | 1023.1 |
| 20260503020033 | 44 | 34 | 0.0 | 0.0 | 0.00 | 0.00 | 0.00 | 74 | 1023.3 |
| 20260503015529 | 45 | 35 | 0.0 | 0.0 | 0.00 | 0.00 | 0.00 | 73 | 1023.4 |
| 20260503015027 | 45 | 29 | 0.0 | 0.0 | 0.00 | 0.00 | 0.00 | 71 | 1023.4 |
| 20260503014522 | 46 | 29 | 0.0 | 0.0 | 0.00 | 0.00 | 0.00 | 70 | 1023.2 |
| 20260503014021 | 46 | 27 | 0.0 | 0.0 | 0.00 | 0.00 | 0.00 | 69 | 1023.1 |
| 20260503013517 | 46 | 27 | 0.0 | 0.0 | 0.00 | 0.00 | 0.00 | 67 | 1023.1 |
| 20260503013015 | 47 | 27 | 0.0 | 0.0 | 0.00 | 0.00 | 0.00 | 66 | 1023.0 |
| 20260503012513 | 47 | 28 | 0.0 | 0.0 | 0.00 | 0.00 | 0.00 | 65 | 1022.9 |
| 20260503012009 | 48 | 28 | 0.0 | 0.0 | 0.00 | 0.00 | 0.00 | 64 | 1022.8 |
| 20260503011506 | 49 | 29 | 0.0 | 0.0 | 0.00 | 0.00 | 0.00 | 62 | 1022.9 |
| 20260503011003 | 49 | 27 | 0.0 | 0.0 | 0.00 | 0.00 | 0.00 | 57 | 1022.9 |
| 20260503010459 | 49 | 13 | 0.0 | 0.0 | 0.00 | 0.00 | 0.00 | 59 | 1022.6 |
| 20260503005956 | 50 | 11 | 0.0 | 0.0 | 0.00 | 0.00 | 0.00 | 58 | 1022.7 |
| 20260503005453 | 50 | 9 | 0.0 | 0.0 | 0.00 | 0.00 | 0.00 | 57 | 1022.8 |
| 20260503004950 | 50 | 33 | 0.0 | 0.0 | 0.00 | 0.00 | 0.00 | 56 | 1022.7 |
| 20260503004447 | 50 | 10 | 0.0 | 0.0 | 0.00 | 0.00 | 0.00 | 56 | 1022.6 |
| 20260503003945 | 50 | 16 | 0.0 | 0.0 | 0.00 | 0.00 | 0.00 | 54 | 1022.6 |
| 20260503003441 | 50 | 3 | 0.0 | 0.0 | 0.00 | 0.00 | 0.00 | 54 | 1022.6 |
| 20260503002938 | 51 | 352 | 0.0 | 0.0 | 0.00 | 0.00 | 0.00 | 55 | 1022.4 |
| 20260503002435 | 51 | 10 | 0.0 | 1.7 | 0.00 | 0.00 | 0.00 | 52 | 1022.5 |
| 20260503001932 | 51 | 10 | 0.0 | 0.0 | 0.00 | 0.00 | 0.00 | 51 | 1022.3 |
| 20260503001428 | 51 | 30 | 0.0 | 0.0 | 0.00 | 0.00 | 0.00 | 50 | 1022.2 |
| 20260503000926 | 51 | 26 | 0.0 | 1.7 | 0.00 | 0.00 | 0.00 | 52 | 1022.2 |
| 20260503000423 | 51 | 17 | 0.0 | 0.0 | 0.00 | 0.00 | 0.00 | 54 | 1022.3 |
| 20260502235920 | 51 | 39 | 1.7 | 2.6 | 0.00 | 0.00 | 0.00 | 49 | 1022.2 |
| 20260502235417 | 52 | 27 | 0.0 | 0.0 | 0.00 | 0.00 | 0.00 | 50 | 1022.2 |
| 20260502234914 | 52 | 16 | 1.7 | 4.3 | 0.00 | 0.00 | 0.00 | 49 | 1022.0 |
| 20260502234411 | 52 | 4 | 0.9 | 1.7 | 0.00 | 0.00 | 0.00 | 49 | 1022.0 |
| 20260502233908 | 53 | 280 | 0.9 | 2.6 | 0.00 | 0.00 | 0.00 | 48 | 1021.9 |
| 20260502233403 | 53 | 23 | 0.0 | 1.7 | 0.00 | 0.00 | 0.00 | 49 | 1022.1 |
| 20260502232901 | 53 | 50 | 3.5 | 6.1 | 0.00 | 0.00 | 0.00 | 47 | 1021.7 |
| 20260502232357 | 53 | 16 | 0.0 | 0.0 | 0.00 | 0.00 | 0.00 | 48 | 1021.9 |
| 20260502231854 | 53 | 24 | 1.7 | 1.7 | 0.00 | 0.00 | 0.00 | 48 | 1021.8 |
| 20260502231351 | 54 | 9 | 0.0 | 2.6 | 0.00 | 0.00 | 0.00 | 47 | 1021.9 |
| 20260502230849 | 54 | 138 | 0.9 | 1.7 | 0.00 | 0.00 | 0.00 | 46 | 1021.8 |
| 20260502230347 | 54 | 109 | 0.9 | 1.7 | 0.00 | 0.00 | 0.00 | 46 | 1021.9 |
| 20260502225844 | 54 | 178 | 1.7 | 2.6 | 0.00 | 0.00 | 0.00 | 48 | 1022.0 |
| 20260502225340 | 54 | 13 | 1.7 | 2.6 | 0.00 | 0.00 | 0.00 | 47 | 1022.1 |
| 20260502224837 | 54 | 9 | 0.0 | 2.6 | 0.00 | 0.00 | 0.00 | 50 | 1022.1 |
| 20260502224333 | 54 | 28 | 0.0 | 1.7 | 0.00 | 0.00 | 0.00 | 49 | 1022.0 |
| 20260502223831 | 55 | 5 | 0.9 | 4.3 | 0.00 | 0.00 | 0.00 | 47 | 1022.0 |
| 20260502223329 | 55 | 15 | 0.0 | 4.3 | 0.00 | 0.00 | 0.00 | 46 | 1022.1 |
| 20260502222827 | 55 | 338 | 3.5 | 8.7 | 0.00 | 0.00 | 0.00 | 46 | 1022.1 |
| 20260502222324 | 57 | 24 | 0.9 | 1.7 | 0.00 | 0.00 | 0.00 | 44 | 1022.1 |
| 20260502221819 | 55 | 33 | 0.9 | 1.7 | 0.00 | 0.00 | 0.00 | 46 | 1022.1 |
| 20260502221316 | 54 | 345 | 0.9 | 1.7 | 0.00 | 0.00 | 0.00 | 45 | 1022.0 |
| 20260502220813 | 54 | 29 | 0.0 | 6.1 | 0.00 | 0.00 | 0.00 | 46 | 1022.0 |
| 20260502220309 | 55 | 63 | 0.0 | 1.7 | 0.00 | 0.00 | 0.00 | 46 | 1022.0 |
| 20260502215806 | 54 | 22 | 0.0 | 2.6 | 0.00 | 0.00 | 0.00 | 47 | 1022.1 |
| 20260502215304 | 55 | 307 | 0.9 | 2.6 | 0.00 | 0.00 | 0.00 | 47 | 1021.9 |
| 20260502214800 | 55 | 106 | 0.0 | 1.7 | 0.00 | 0.00 | 0.00 | 47 | 1022.0 |
| 20260502214256 | 55 | 17 | 0.0 | 2.6 | 0.00 | 0.00 | 0.00 | 47 | 1021.9 |
| 20260502213754 | 54 | 69 | 0.0 | 1.7 | 0.00 | 0.00 | 0.00 | 49 | 1021.9 |
| 20260502213251 | 55 | 47 | 0.0 | 2.6 | 0.00 | 0.00 | 0.00 | 47 | 1022.0 |
| 20260502212750 | 55 | 10 | 0.9 | 2.6 | 0.00 | 0.00 | 0.00 | 48 | 1021.7 |
| 20260502212248 | 55 | 320 | 0.0 | 1.7 | 0.00 | 0.00 | 0.00 | 47 | 1021.9 |
| 20260502211743 | 54 | 38 | 0.9 | 4.3 | 0.00 | 0.00 | 0.00 | 47 | 1021.9 |
| 20260502211240 | 55 | 280 | 1.7 | 4.3 | 0.00 | 0.00 | 0.00 | 47 | 1021.7 |
| 20260502210737 | 54 | 135 | 1.7 | 6.1 | 0.00 | 0.00 | 0.00 | 47 | 1021.8 |
| 20260502210235 | 55 | 340 | 0.0 | 4.3 | 0.00 | 0.00 | 0.00 | 46 | 1021.8 |
| 20260502205732 | 56 | 13 | 0.0 | 1.7 | 0.00 | 0.00 | 0.00 | 46 | 1022.0 |
| 20260502205228 | 55 | 21 | 2.6 | 2.6 | 0.00 | 0.00 | 0.00 | 45 | 1021.8 |
| 20260502204725 | 55 | 295 | 0.9 | 4.3 | 0.00 | 0.00 | 0.00 | 45 | 1021.7 |
| 20260502204223 | 57 | 35 | 2.6 | 6.1 | 0.00 | 0.00 | 0.00 | 43 | 1021.9 |
| 20260502203720 | 57 | 221 | 1.7 | 4.3 | 0.00 | 0.00 | 0.00 | 43 | 1021.9 |
| 20260502203218 | 57 | 45 | 0.0 | 1.7 | 0.00 | 0.00 | 0.00 | 44 | 1021.9 |
| 20260502202712 | 57 | 154 | 1.7 | 4.3 | 0.00 | 0.00 | 0.00 | 42 | 1022.0 |
| 20260502202211 | 55 | 20 | 1.7 | 2.6 | 0.00 | 0.00 | 0.00 | 44 | 1022.1 |
| 20260502201708 | 56 | 339 | 0.0 | 1.7 | 0.00 | 0.00 | 0.00 | 44 | 1022.3 |
| 20260502201204 | 55 | 24 | 0.0 | 1.7 | 0.00 | 0.00 | 0.00 | 48 | 1022.1 |
| 20260502200700 | 55 | 324 | 1.7 | 2.6 | 0.00 | 0.00 | 0.00 | 48 | 1022.3 |